Das Wetter in  D-61279 Heinzenberg / Taunus





Wetter Minimum- & Maximum-Werte im April 2014

Standort: Heinzenberg / Taunus - Höhe 297 m         8 24' 1" Ost 50 21' 51" Nord
(   3-stündige Aktualisierung    letzte Aktualisierung um 19:04 am 30.04.2014  )


Messgrösse

Minimum

Maximum

Durchschnitt

Temperatur West /
Luftfeuchte West
Anklicken für Monats-Diagramm

-1,5 C

07:28
16.04.2014

31 %

16:16
01.04.2014

26,3 C

17:52
25.04.2014

92 %

05:21
30.04.2014

Temp

11,9 C

Feuchte

68 %

Temperatur Ost /
Luftfeuchte Ost
Anklicken für Monats-Diagramm

-1,2 C

07:03
16.04.2014

--

--
--

24,9 C

14:36
24.04.2014

--

--
--

11,9 C

--

Luftdruck Anklicken für Monats-Diagramm

1001,4 hPa

16:23
21.04.2014

1031,8 hPa

07:48
16.04.2014

1014,6 hPa

Taupunkt

-4,7 C

05:54
17.04.2014

13,5 C

17:51
29.04.2014

5,9 C

Windchill
( gefühlte Temperatur )

-6,1 C

01:37
15.04.2014

26,2 C

17:52
25.04.2014

10,3 C

Windgeschwindigkeit /
Windrichtung
Anklicken für Monats-Diagramm

---

53,4 km/h / W

14:11
14.04.2014

7,2 km/h
W

Helligkeit /
Sonnenschein
Anklicken für Monats-Diagramm
Anklicken für Monats-Diagramm

Sonnenschein:

129:03 Stunden

Max: 10:10 Std am
17.04.2014

100,0 klux

13:52
15.04.2014

26 klux

Solarstrahlung Anklicken für Monats-Diagramm

---

684 W/m

13:52
15.04.2014

191 W/m

Regenmenge
    April 2014
Anklicken für Monats-Diagramm

Insgesamt 49,2 l/m

in 24:20 Stunden
an 13 Tagen

22,5 l/m

04:38
27.04.2014

Gesamtmenge

49,2 l/m

Regen-Tage
    April 2014
Anklicken für Monats-Diagramm

>   0 mm/Tag

>   2 mm/Tag

>   5 mm/Tag

> 10 mm/Tag

> 20 mm/Tag

13 Tage     
5 Tage     
2 Tage     
2 Tage     
  1 Tag     

Eisige Tage April 2014 / 2013

Tmin ≤ -10C     

0 Tage

/

0 Tage

Eistage April 2014 / 2013

Tmax <     0C     

0 Tage

/

0 Tage

Frosttage April 2014 / 2013

Tmin ≤     0C     

2 Tage

/

9 Tage

Kalte Tage April 2014 / 2013

Tmax <   10C     

  1 Tag

/

8 Tage

Warme Tage April 2014 / 2013

Tmax ≥   20C     

11 Tage

/

7 Tage

Sommertage April 2014 / 2013

Tmax ≥   25C     

2 Tage

/

2 Tage

Heisse Tage April 2014 / 2013

Tmax ≥   30C     

0 Tage

/

0 Tage


Monatsdiagramm April 2014

Die Kurven zeigen den Durchschnittswert des jeweiligen Tages an


Wetter-Monatsübersicht April 2014
Datum
  Temperatur
   Luftdruck
   Wind
  Regen
   Luftfeuchte
   Helligkeit

Sonnen-
schein


Temp.

Min.
Temp.

Max.
Temp.


Luftdruck

Min.
Luftdruck

Max.
Luftdruck

-Geschw.
Haupt-Richtg.

Max.
Wind

Menge /
Dauer


Feuchte

Min.
Feuchte

Max.
Feuchte


Helligkeit

Max.
Helligkeit

1.
April
13,4 C5,5 C
08:16
22,3 C
16:41
1011,8 hPa1008,2 hPa
17:36
1015,1 hPa
01:31
3,5 km/h
SO
22,0 km/h
17:16  
---
55 %31 %
16:16
77 %
08:56
32,1 klux65,5 klux
14:11
6:35 Std 
2.
April
14,0 C5,2 C
07:17
23,0 C
17:32
1008,0 hPa1003,9 hPa
17:32
1011,3 hPa
07:47
6,3 km/h
W-SW
32,4 km/h
14:37  
---
56 %38 %
17:22
76 %
08:37
27,9 klux76,7 klux
13:32
8:30 Std 
3.
April
13,8 C9,0 C
09:17
22,2 C
15:12
1004,9 hPa1003,0 hPa
15:12
1006,1 hPa
23:43
1,9 km/h
O-SO
16,0 km/h
12:12  
---
66 %41 %
14:27
80 %
09:17
20,3 klux56,0 klux
11:42
10 Min 
4.
April
15,0 C9,6 C
08:03
21,5 C
14:58
1006,9 hPa1005,1 hPa
15:58
1010,2 hPa
23:54
3,4 km/h
NO
29,0 km/h
17:18  
---
62 %40 %
15:58
77 %
10:18
23,5 klux53,9 klux
14:03
20 Min 
5.
April
12,4 C10,9 C
06:54
13,9 C
13:04
1013,9 hPa1009,3 hPa
01:09
1018,7 hPa
23:50
6,4 km/h
W-NW
23,0 km/h
17:39  
---
79 %71 %
00:04
84 %
08:34
8,8 klux19,6 klux
16:09
--- 
6.
April
12,3 C4,7 C
07:30
18,7 C
15:05
1018,7 hPa1016,9 hPa
16:15
1020,6 hPa
08:15
7,3 km/h
W
27,0 km/h
14:50  
---
70 %48 %
14:25
89 %
09:15
29,8 klux79,3 klux
14:20
5:15 Std 
7.
April
15,5 C9,4 C
03:56
21,4 C
18:21
1016,0 hPa1010,7 hPa
22:41
1020,0 hPa
04:36
7,6 km/h
W-SW
27,4 km/h
18:11  
---
65 %47 %
18:21
81 %
08:16
29,9 klux81,4 klux
12:11
3:55 Std 
8.
April
11,6 C4,4 C
23:58
17,6 C
00:01
1015,6 hPa1009,7 hPa
00:21
1023,8 hPa
23:58
25,1 km/h
W
46,8 km/h
16:27  
2,6 l/m
2:05 Stunden
63 %50 %
17:52
86 %
07:52
18,8 klux87,7 klux
14:27
1:39 Std 
9.
April
7,7 C3,1 C
03:18
12,6 C
18:33
1024,8 hPa1022,8 hPa
18:33
1026,7 hPa
09:48
12,8 km/h
W-NW
40,1 km/h
13:23  
---
45 Minuten
71 %54 %
15:33
85 %
01:23
23,5 klux91,4 klux
14:03
2:30 Std 
10.
April
11,0 C7,7 C
07:08
14,8 C
12:48
1022,0 hPa1020,4 hPa
15:53
1024,2 hPa
00:03
6,2 km/h
W
16,4 km/h
12:03  
---
67 %62 %
12:38
74 %
23:49
18,1 klux87,7 klux
12:28
40 Min 
11.
April
12,0 C7,2 C
03:49
17,7 C
12:09
1018,1 hPa1015,9 hPa
17:09
1021,2 hPa
00:09
1,5 km/h
SO
19,6 km/h
11:24  
---
10 Minuten
69 %51 %
16:54
83 %
07:30
19,1 klux67,5 klux
11:59
1:44 Std 
12.
April
12,3 C8,2 C
07:50
18,1 C
17:15
1016,9 hPa1014,8 hPa
17:15
1018,9 hPa
01:30
6,9 km/h
NW
22,8 km/h
16:40  
---
68 %50 %
17:05
81 %
03:35
30,8 klux76,1 klux
13:00
4:40 Std 
13.
April
10,6 C7,0 C
06:05
15,0 C
13:25
1018,7 hPa1016,7 hPa
00:00
1020,3 hPa
08:40
9,4 km/h
NW
29,1 km/h
17:55  
---
64 %54 %
17:55
75 %
08:45
26,2 klux90,3 klux
13:25
4:04 Std 
14.
April
8,2 C3,9 C
23:47
11,8 C
15:16
1017,3 hPa1015,0 hPa
05:31
1021,8 hPa
23:47
21,8 km/h
W
53,4 km/h
14:11  
1,1 l/m
3:25 Stunden
70 %50 %
18:16
85 %
10:51
29,2 klux90,9 klux
13:36
5:10 Std 
15.
April
5,4 C2,8 C
02:47
8,8 C
17:42
1025,0 hPa1021,8 hPa
00:02
1028,0 hPa
23:58
12,8 km/h
W-NW
26,4 km/h
17:47  
---
5 Minuten
69 %54 %
15:57
80 %
01:07
17,8 klux100,0 klux
13:52
50 Min 
16.
April
7,0 C-1,5 C
07:28
16,6 C
18:08
1029,4 hPa1027,4 hPa
18:08
1031,8 hPa
07:48
4,6 km/h
SO
26,7 km/h
16:33  
---
60 %37 %
17:28
82 %
08:38
38 klux94 klux
13:48
9:59 Std 
17.
April
8,8 C-0,8 C
05:54
17,6 C
18:24
1022,3 hPa1012,5 hPa
23:55
1029,3 hPa
01:53
7,4 km/h
W-SW
27,1 km/h
11:54  
---
54 %35 %
12:54
78 %
07:29
38,8 klux81,8 klux
13:34
10:10 Std 
18.
April
10,1 C6,4 C
07:35
14,7 C
17:15
1012,5 hPa1010,6 hPa
03:10
1015,2 hPa
23:56
14,2 km/h
NW
37,9 km/h
13:00  
0,6 l/m
2:10 Stunden
56 %38 %
17:05
79 %
06:45
38,5 klux93,0 klux
13:40
8:35 Std 
19.
April
9,4 C1,2 C
05:01
18,5 C
18:06
1014,2 hPa1010,7 hPa
18:06
1017,9 hPa
07:56
10,5 km/h
NO
40,1 km/h
13:46  
---
65 %47 %
14:16
82 %
08:16
35,5 klux81,8 klux
12:16
7:50 Std 
20.
April
14,4 C7,9 C
06:52
22,2 C
17:42
1007,1 hPa1004,0 hPa
17:42
1011,6 hPa
00:27
8,7 km/h
O
31,9 km/h
13:37  
0,2 l/m
15 Minuten
63 %37 %
17:37
85 %
07:17
35,5 klux84,1 klux
14:37
7:10 Std 
21.
April
11,8 C3,6 C
07:23
20,3 C
13:58
1004,7 hPa1001,4 hPa
16:23
1007,8 hPa
01:53
5,6 km/h
SO
22,1 km/h
13:33  
3,8 l/m
1:50 Stunden
67 %42 %
15:43
83 %
08:03
31,5 klux86,8 klux
12:08
6:10 Std 
22.
April
12,9 C9,1 C
03:09
19,6 C
17:39
1011,1 hPa1005,4 hPa
00:04
1016,9 hPa
23:55
4,5 km/h
W-SW
20,8 km/h
14:34  
---
75 %51 %
17:29
89 %
08:54
26,6 klux84,8 klux
12:44
4:51 Std 
23.
April
12,3 C5,9 C
06:10
19,9 C
15:10
1019,0 hPa1016,9 hPa
00:00
1021,1 hPa
23:51
2,0 km/h
SO
19,8 km/h
16:24  
0,2 l/m
10 Minuten
73 %53 %
15:00
86 %
07:45
23,2 klux82,4 klux
14:40
3:30 Std 
24.
April
15,4 C6,6 C
06:31
25,6 C
17:26
1017,7 hPa1013,2 hPa
18:46
1021,4 hPa
07:36
4,1 km/h
SO
24,5 km/h
12:51  
---
63 %37 %
16:36
86 %
07:56
38,8 klux81,9 klux
12:41
9:15 Std 
25.
April
16,4 C7,3 C
06:57
26,3 C
17:52
1011,8 hPa1007,8 hPa
18:07
1015,6 hPa
01:12
4,3 km/h
SO
22,2 km/h
12:12  
---
64 %39 %
17:22
86 %
09:02
37,1 klux76,5 klux
14:02
8:20 Std 
26.
April
14,8 C11,9 C
06:42
20,0 C
15:27
1010,5 hPa1007,1 hPa
23:03
1013,3 hPa
03:27
4,2 km/h
NW
17,0 km/h
14:02  
2,4 l/m
2:05 Stunden
74 %52 %
16:32
87 %
10:57
24,0 klux81,3 klux
14:12
2:16 Std 
27.
April
11,5 C9,1 C
23:35
13,7 C
18:18
1007,7 hPa1006,3 hPa
01:08
1009,7 hPa
23:35
6,6 km/h
W-NW
19,6 km/h
13:08  
22,5 l/m
6:20 Stunden
83 %74 %
18:38
90 %
07:58
13,1 klux46,3 klux
13:03
5 Min 
28.
April
11,1 C8,3 C
02:25
14,1 C
14:05
1010,4 hPa1009,7 hPa
00:00
1012,5 hPa
23:56
1,7 km/h
N
11,3 km/h
14:45  
0,3 l/m
40 Minuten
84 %72 %
14:20
89 %
07:35
11,0 klux35,2 klux
12:25
--- 
29.
April
13,1 C11,4 C
23:31
17,0 C
17:51
1011,6 hPa1009,8 hPa
17:51
1012,5 hPa
00:01
2,6 km/h
NW
12,7 km/h
16:36  
15,7 l/m
4:20 Stunden
87 %78 %
17:46
90 %
05:56
14,6 klux84,4 klux
12:01
45 Min 
30.
April
13,3 C9,9 C
03:26
20,0 C
18:31
1010,4 hPa1008,4 hPa
18:31
1011,6 hPa
00:46
3,4 km/h
NW
21,8 km/h
15:56  
---
83 %59 %
18:56
92 %
05:21
23,0 klux86,8 klux
14:01
4:05 Std 



April
2014

Temperatur

  

Luftdruck

  

Wind

  

Regen

  

Luftfeuchte

  

Helligkeit

Sonnen-
schein

Min

Max

Min

Max

Max

Max

Min

Max

Max

Max

11,9 C

-1,5 C

07:28 Uhr
16.04.2014

26,3 C

17:52 Uhr
25.04.2014

1014,6 hPa

1001,4 hPa

16:23 Uhr
21.04.2014

1031,8 hPa

07:48 Uhr
16.04.2014

7,2 km/h

W

53,4 km/h

14:11 Uhr
14.04.2014

22,5 l/m

6:20 Stunden
27.04.2014

68 %

31 %

16:16 Uhr
01.04.2014

92 %

05:21 Uhr
30.04.2014

26,2 klux

100,0 klux

13:52 Uhr
15.04.2014

10:10 Std

am
17.04.2014

Gesamt

Gesamt

49,2 l/m

13 Tage
24:20 h

129:03 Std


Wetter-Diagramme April 2014     Heinzenberg / Taunus   
TemperaturLuftfeuchte
SolarstrahlungLuftdruck
HelligkeitSonnenschein
RegenmengeRegendauer
Wind-GeschwindigkeitWind-Richtung